weather.gov     
National Weather Service

Regional Weather Roundup
NWS Homepage
This page is being discontinued on March 12, 2014.
The same data is available at this site. Please update your bookmarks.
Thank you, and we apologize for the inconvenience.
Please send an email to SR-SRH.Webmaster@noaa.gov with any concerns.


Current Version
Previous Version:    01  02  03  04  05  06  07  08  09  10  11  12  13  14  15  16  17  18  19  20  21  22  23  24  25  26  
[Printable]
108
ASUS41 KAKQ 210710
RWRAKQ

REGIONAL WEATHER ROUNDUP
NATIONAL WEATHER SERVICE WAKEFIELD VA
300 AM EDT MON APR 21 2014

Note: "fair" indicates few or no clouds below 12,000 feet with no
significant weather and/or obstructions to visibility. * = Denotes
station may not report precipitation (e.g., rain,snow,etc.),
thunder or fog.

VAZ042-051-052>054-056-210800-
NORTHERN VIRGINIA

CITY           SKY/WX    TMP DP  RH WIND       PRES   REMARKS
WASH NATIONAL  PTCLDY    46  31  55 NE5       30.26F
DULLES         CLEAR     36  32  85 CALM      30.25F
FORT BELVOIR   CLEAR     38  32  81 CALM      30.26F
QUANTICO       CLEAR     48  27  44 NE10      30.26F
FREDERICKSBRG* CLEAR     39  36  87 NW3       30.23F
STAFFORD*      CLEAR     38  32  80 CALM      30.28F
WARRENTON      CLEAR     35  35 100 CALM      30.24F
CULPEPER*      CLEAR     39  37  93 CALM      30.25F
MANASSAS*      CLEAR     37  37 100 CALM      30.25F
LEESBURG*      CLEAR     39  36  87 CALM      30.25F
WINCHESTER     CLEAR     41  34  75 CALM      30.22F
$$

VAZ048-049-060>072-079>083-210800-
CENTRAL AND SOUTH CENTRAL VIRGINIA...AND NORTH CENTRAL NORTH CAROLINA

CITY           SKY/WX    TMP DP  RH WIND       PRES   REMARKS
RICHMOND       CLEAR     41  27  57 N6        30.21F
CHESTERFIELD*  NOT AVBL
HANOVER        CLEAR     37  29  72 NE3       30.23F
TAPPAHANNOCK*  CLEAR     42  26  53 N5        30.21F
CHARLOTTSVILLE CLEAR     43  32  65 CALM      30.23F
ORANGE*        CLEAR     37  32  81 CALM      30.25F
LOUISA*        CLEAR     37  30  75 N3        30.22F
FARMVILLE*     CLEAR     43  32  65 CALM      30.21S
SOUTH HILL*    CLEAR     43  32  65 N3        30.23F
ROANOKE RAPIDS SUNNY     45  34  65 N7        30.16F
RALEIGH        PTCLDY    46  34  62 N3        30.16F
$$

VAZ088>098-210800-
SOUTHEAST VIRGINIA

CITY           SKY/WX    TMP DP  RH WIND       PRES   REMARKS
NORFOLK        CLOUDY    48  42  80 N15       30.16F
VIRGINIA BEACH CLOUDY    48  43  82 N14G21    30.14F
NORFOLK NAVAL  CLOUDY    49  42  77 N20       30.18F
WEST POINT*    CLEAR     43  34  69 N6        30.22F
NEWPORT NEWS   CLOUDY    49  40  71 N8        30.18F
LANGLEY AFB    CLOUDY    48  45  88 NE13      30.18F
FORT EUSTIS    PTCLDY    44  39  81 VRB6      30.16F
WILLIAMSBURG*  CLEAR     45  37  76 NE5       30.20F
FRANKLIN*      CLEAR     45  37  76 N3        30.17F
WAKEFIELD      CLEAR     42  34  73 N3        30.18F
$$

VAZ020-022-025-037-045-210800-
WESTERN AND SOUTHWEST VIRGINIA

CITY           SKY/WX    TMP DP  RH WIND       PRES   REMARKS
STAUNTON*      CLEAR     35  32  88 CALM      30.23F
HOT SPRINGS VA CLEAR     45  30  57 CALM      30.23F
LYNCHBURG      CLEAR     47  36  65 N5        30.22F
DANVILLE       CLEAR     44  34  67 NE5       30.21F
MARTINSVILLE     N/A     38  36  92 CALM      30.23F
ROANOKE        CLEAR     48  33  56 CALM      30.23F
BLACKSBURG     CLEAR     41  36  81 SE3       30.22F
DUBLIN*        CLEAR     42  31  64 CALM      30.22S
MARION*        PTCLDY    39  30  70 CALM      30.21F
HILLSVILLE*    CLEAR     45  25  45 S3        30.23S
RICHLANDS*     SUNNY     55  26  31 SE3       30.16F
WISE*          CLEAR     54  25  32 S6        30.17F
ABINGDON*      CLEAR     49  29  45 CALM      30.16F
$$

MDZ021>025-VAZ099-100-210800-
SOUTHERN MARYLAND AND THE DELMARVA PENINSULA

CITY           SKY/WX    TMP DP  RH WIND       PRES   REMARKS
PATUXENT RIVER CLEAR     42  31  64 NE8       30.22F
BAY BRIDGE APT CLEAR     41  27  56 N3        30.25F
LEONARDTOWN    CLEAR     41  30  65 CALM      30.24F
DOVER          CLEAR     36  33  88 N5        30.20F
GEORGETOWN     CLEAR     41  35  79 NE3       30.23F
EASTON         CLEAR     39  31  71 CALM      30.27F
CAMBRIDGE      CLEAR     43  30  61 N6        30.23F
SALISBURY      CLEAR     40  35  83 N5        30.22F
OCEAN CITY     CLEAR     45  39  79 NE9       30.21F
WALLOPS ISLAND CLEAR     41  38  89 N8        30.21F
ACCOMACK*      CLEAR     41  36  81 N7        30.19F
$$

NCZ012>017-030>032-210800-
EASTERN NORTH CAROLINA

CITY           SKY/WX    TMP DP  RH WIND       PRES   REMARKS
ELIZABETH CITY LGT RAIN  47  44  90 N18G24    30.12F
AHOSKIE*       CLEAR     45  35  68 N7        30.15F
EDENTON*       CLOUDY    48  44  88 N13G20    30.11F
CURRITUCK*     CLOUDY    47  45  93 N16G24    30.13F
KILL DEVIL HLS CLOUDY    48  46  95 N14G23    30.06F FOG
MANTEO         CLOUDY    48  46  94 N18G29    30.08S
CAPE HATTERAS  LGT RAIN  49  49 100 N14G29    30.00F
GOLDSBORO      PTCLDY    50  39  66 N12       30.10F
WASHINGTON     CLOUDY    53  48  83 N14G20    30.11F
GREENVILLE     PTCLDY    46  37  71 N10       30.13F
NEW BERN       CLOUDY    52  45  77 N13       30.08F
WILMINGTON     CLEAR     52  42  69 N15       30.05F
$$

VAZ048-210800-
ELSEWHERE

CITY           SKY/WX    TMP DP  RH WIND       PRES   REMARKS
HARRISBURG PA  PTCLDY    43  30  60 E3        30.24F
BALTIMORE      CLEAR     38  30  73 CALM      30.24F
ANNAPOLIS      CLEAR     45  26  47 CALM      30.24F
ANDREWS AFB    CLEAR     38  29  68 NE5       30.23F
WILMINGTON DE  CLEAR     40  26  57 N3        30.26F
PHILADELPHIA   CLEAR     42  22  44 NE6       30.26F
WILDWOOD NJ*   CLEAR     37  30  75 N6        30.24F
ATLANTIC CITY  PTCLDY   N/A N/A N/A N5        30.24F
HENDERSON NC   CLEAR     44  30  58 N6        30.18F
GREENSBORO     CLEAR     46  35  65 NE5       30.18F
ROCKY MOUNT    PTCLDY    47  36  65 N12       30.15F
FAYETTEVILLE   CLOUDY    54  38  54 N12       30.11F
CHARLOTTE      CLEAR     49  39  68 NW6       30.18F
$$

VAZ100-210800-
MARINE

STATION/POSITION TIME  TEMP    WIND        PRES    WAVE   SWELL
                       AIR SEA DIR/SP/G            HT/PER HT/PER
                 (UTC) (F)     (DEG/KT/KT) (MB)    (FT/S) (FT/S)
44066 TX TWR #4  0700   44 44   60/ 14/ 16 1023.3F   6/ 9   5/ 9
CAPE MAY NJ      0700   40 54   30/  2/  3 1023.6F
LEWES DE         0700   44 49   50/ 10/ 12 1023.0F
15NM E FENWICK I 0700   45 46              1022.8F   8/11
OCEAN-CITY-INLET 0700   45 47   30/  7/  9 1022.7F
WACHAPREAGUE VA  0700   44 53   20/  9/ 14 1021.6F
THOMAS POINT MD  0700   46 53   40/  9/ 11 1024.4F
GOOSES REEF MD   0700   46      70/ 12/ 14 1024.5F
COVE POINT MD    0700   45      50/ 10/ 12 1023.5F
SOLOMONS ISLAND  0700      53                N/A
BISHOPS HEAD MD  0700   44 52   40/ 11/ 14 1023.1F
PINEY POINT MD   0700           50/  4/  5   N/A
POTOMAC MD       0700   46      50/ 10/ 12 1022.8F
CAMBRIDGE MD     0700   44 56   40/  7/ 10 1023.4F
LEWISETTA VA     0700   46 55   40/  7/  9 1023.0F
RAPPAHANNOCK LGT 0700           20/ 17/ 18 1022.7F
STINGRAY PT      0700   47      50/ 14/ 17 1022.7F
YORK RVR RNG VA  0700   47      30/ 16/ 18 1021.3F
YORKTOWN VA      0700   47 54   20/  7/  8 1022.1F
JAMESTOWN VA     0700   44      40/  4/  6   N/A
DOMINION TERM VA 0700   48      20/  6/ 12 1021.9F
KIPTOPEKE VA     0700      53   40/ 10/ 13   N/A
CHES BAY BRIDGE  0700   46 51  360/ 15/ 17 1021.2F
CAPE HENRY VA    0700   47      10/ 20/ 24   N/A
CHESAPEAKE LGHT  0600   46      20/ 25/ 27 1021.1F
WILLOUBY STN VA  0700   48      20/ 15/ 18 1020.8F
S CRANEY ISL VA  0700          360/ 15/ 18 1021.4F
CAPE HENRY BUOY  0700      46                N/A     9/11   3/11
1ST LANDING BUOY 0700      47                N/A     8/12   7/12
64NM E OF VA BCH 0700   51 48   20/ 19/ 25 1017.4F  12/11  10/11
DUCK PIER NC     0700   47 49   10/ 22/ 26 1017.6S
44100 DUCK FRF   0700      48                N/A    11/11   5/11
44056 DUCK FRF   0700      48                N/A     9/12   5/12
OREGON INLET NC  0700   48 50  360/ 20/ 25 1017.3F
HATTERAS NC      0700   52 55  360/ 23/ 35 1015.7F
DIAMOND SHLS NC  0700   59 75  360/ 33/ 43 1012.3F  17/11  11/11
CAPE LOOKOUT NC  0600   52     360/ 24/ 30 1016.4F
FRYING PAN SHLS  0700   59 68   30/ 27/ 33 1014.3F  10/ 8   3/11
$$




U.S. Dept. of Commerce
NOAA National Weather Service
1325 East West Highway
Silver Spring, MD 20910
E-mail: w-nws.webmaster@noaa.gov
Page last modified: May 16, 2007
NATIONAL WEATHER SERVICE: for Safety, for Work, for Fun - FOR LIFE